Year,Month,Day,Hour,Minute,Value (Times are PST for temperature in C)
2007,07,04,00,00,15.90
2007,07,04,00,01,15.90
2007,07,04,00,02,15.90
2007,07,04,00,03,15.90
2007,07,04,00,04,15.80
2007,07,04,00,05,15.80
2007,07,04,00,06,15.80
2007,07,04,00,07,15.80
2007,07,04,00,08,15.80
2007,07,04,00,09,15.80
2007,07,04,00,10,15.80
2007,07,04,00,11,15.70
2007,07,04,00,12,15.70
2007,07,04,00,13,15.70
2007,07,04,00,14,15.70
2007,07,04,00,15,15.70
2007,07,04,00,16,15.70
2007,07,04,00,17,15.70
2007,07,04,00,18,15.70
2007,07,04,00,19,15.70
2007,07,04,00,20,15.60
2007,07,04,00,21,15.60
2007,07,04,00,22,15.50
2007,07,04,00,23,15.50
2007,07,04,00,24,15.50
2007,07,04,00,25,15.40
2007,07,04,00,26,15.40
2007,07,04,00,27,15.40
2007,07,04,00,28,15.30
2007,07,04,00,29,15.30
2007,07,04,00,30,15.30
2007,07,04,00,31,15.20
2007,07,04,00,32,15.20
2007,07,04,00,33,15.20
2007,07,04,00,34,15.10
2007,07,04,00,35,15.00
2007,07,04,00,36,15.00
2007,07,04,00,37,15.00
2007,07,04,00,38,15.00
2007,07,04,00,39,15.00
2007,07,04,00,40,15.00
2007,07,04,00,41,15.00
2007,07,04,00,42,14.90
2007,07,04,00,43,14.90
2007,07,04,00,44,14.80
2007,07,04,00,45,14.80
2007,07,04,00,46,14.80
2007,07,04,00,47,14.70
2007,07,04,00,48,14.70
2007,07,04,00,49,14.70
2007,07,04,00,50,14.70
2007,07,04,00,51,14.70
2007,07,04,00,52,14.70
2007,07,04,00,53,14.70
2007,07,04,00,54,14.70
2007,07,04,00,55,14.70
2007,07,04,00,56,14.70
2007,07,04,00,57,14.70
2007,07,04,00,58,14.70
2007,07,04,00,59,14.70
2007,07,04,01,00,14.70
2007,07,04,01,01,14.70
2007,07,04,01,02,14.70
2007,07,04,01,03,14.70
2007,07,04,01,04,14.70
2007,07,04,01,05,14.70
2007,07,04,01,06,14.70
2007,07,04,01,07,14.70
2007,07,04,01,08,14.80
2007,07,04,01,09,14.80
2007,07,04,01,10,14.80
2007,07,04,01,11,14.80
2007,07,04,01,12,14.90
2007,07,04,01,13,14.90
2007,07,04,01,14,14.90
2007,07,04,01,15,14.90
2007,07,04,01,16,15.00
2007,07,04,01,17,14.90
2007,07,04,01,18,14.90
2007,07,04,01,19,14.90
2007,07,04,01,20,14.90
2007,07,04,01,21,14.80
2007,07,04,01,22,14.80
2007,07,04,01,23,14.80
2007,07,04,01,24,14.70
2007,07,04,01,25,14.70
2007,07,04,01,26,14.70
2007,07,04,01,27,14.70
2007,07,04,01,28,14.70
2007,07,04,01,29,14.60
2007,07,04,01,30,14.60
2007,07,04,01,31,14.60
2007,07,04,01,32,14.60
2007,07,04,01,33,14.60
2007,07,04,01,34,14.60
2007,07,04,01,35,14.50
2007,07,04,01,36,14.50
2007,07,04,01,37,14.40
2007,07,04,01,38,14.40
2007,07,04,01,39,14.40
2007,07,04,01,40,14.40
2007,07,04,01,41,14.30
2007,07,04,01,42,14.30
2007,07,04,01,43,14.30
2007,07,04,01,44,14.30
2007,07,04,01,45,14.20
2007,07,04,01,46,14.20
2007,07,04,01,47,14.20
2007,07,04,01,48,14.20
2007,07,04,01,49,14.20
2007,07,04,01,50,14.20
2007,07,04,01,51,14.20
2007,07,04,01,52,14.20
2007,07,04,01,53,14.20
2007,07,04,01,54,14.20
2007,07,04,01,55,14.20
2007,07,04,01,56,14.30
2007,07,04,01,57,14.30
2007,07,04,01,58,14.30
2007,07,04,01,59,14.30
2007,07,04,02,00,14.30
2007,07,04,02,01,14.30
2007,07,04,02,02,14.30
2007,07,04,02,03,14.30
2007,07,04,02,04,14.40
2007,07,04,02,05,14.40
2007,07,04,02,06,14.40
2007,07,04,02,07,14.40
2007,07,04,02,08,14.40
2007,07,04,02,09,14.50
2007,07,04,02,10,14.50
2007,07,04,02,11,14.60
2007,07,04,02,12,14.60
2007,07,04,02,13,14.60
2007,07,04,02,14,14.70
2007,07,04,02,15,14.70
2007,07,04,02,16,14.70
2007,07,04,02,17,14.70
2007,07,04,02,18,14.70
2007,07,04,02,19,14.80
2007,07,04,02,20,14.80
2007,07,04,02,21,14.80
2007,07,04,02,22,14.80
2007,07,04,02,23,14.80
2007,07,04,02,24,14.90
2007,07,04,02,25,14.90
2007,07,04,02,26,14.90
2007,07,04,02,27,14.90
2007,07,04,02,28,14.90
2007,07,04,02,29,14.90
2007,07,04,02,30,15.00
2007,07,04,02,31,15.00
2007,07,04,02,32,15.00
2007,07,04,02,33,15.00
2007,07,04,02,34,15.00
2007,07,04,02,35,15.00
2007,07,04,02,36,15.00
2007,07,04,02,37,15.00
2007,07,04,02,38,15.00
2007,07,04,02,39,15.00
2007,07,04,02,40,15.00
2007,07,04,02,41,15.00
2007,07,04,02,42,15.00
2007,07,04,02,43,15.00
2007,07,04,02,44,15.00
2007,07,04,02,45,15.00
2007,07,04,02,46,15.00
2007,07,04,02,47,15.00
2007,07,04,02,48,15.00
2007,07,04,02,49,15.00
2007,07,04,02,50,15.00
2007,07,04,02,51,15.00
2007,07,04,02,52,15.00
2007,07,04,02,53,15.00
2007,07,04,02,54,15.00
2007,07,04,02,55,14.90
2007,07,04,02,56,14.90
2007,07,04,02,57,14.90
2007,07,04,02,58,14.80
2007,07,04,02,59,14.80
2007,07,04,03,00,14.70
2007,07,04,03,01,14.70
2007,07,04,03,02,14.70
2007,07,04,03,03,14.60
2007,07,04,03,04,14.60
2007,07,04,03,05,14.60
2007,07,04,03,06,14.50
2007,07,04,03,07,14.50
2007,07,04,03,08,14.50
2007,07,04,03,09,14.40
2007,07,04,03,10,14.40
2007,07,04,03,11,14.40
2007,07,04,03,12,14.40
2007,07,04,03,13,14.30
2007,07,04,03,14,14.30
2007,07,04,03,15,14.30
2007,07,04,03,16,14.30
2007,07,04,03,17,14.30
2007,07,04,03,18,14.20
2007,07,04,03,19,14.20
2007,07,04,03,20,14.20
2007,07,04,03,21,14.20
2007,07,04,03,22,14.10
2007,07,04,03,23,14.10
2007,07,04,03,24,14.10
2007,07,04,03,25,14.10
2007,07,04,03,26,14.10
2007,07,04,03,27,14.00
2007,07,04,03,28,14.00
2007,07,04,03,29,14.00
2007,07,04,03,30,13.90
2007,07,04,03,31,13.90
2007,07,04,03,32,13.90
2007,07,04,03,33,13.90
2007,07,04,03,34,13.90
2007,07,04,03,35,13.80
2007,07,04,03,36,13.80
2007,07,04,03,37,13.80
2007,07,04,03,38,13.80
2007,07,04,03,39,13.80
2007,07,04,03,40,13.80
2007,07,04,03,41,13.70
2007,07,04,03,42,13.70
2007,07,04,03,43,13.70
2007,07,04,03,44,13.70
2007,07,04,03,45,13.60
2007,07,04,03,46,13.60
2007,07,04,03,47,13.60
2007,07,04,03,48,13.60
2007,07,04,03,49,13.60
2007,07,04,03,50,13.60
2007,07,04,03,51,13.60
2007,07,04,03,52,13.50
2007,07,04,03,53,13.50
2007,07,04,03,54,13.50
2007,07,04,03,55,13.50
2007,07,04,03,56,13.40
2007,07,04,03,57,13.40
2007,07,04,03,58,13.40
2007,07,04,03,59,13.40
2007,07,04,04,00,13.30
2007,07,04,04,01,13.30
2007,07,04,04,02,13.30
2007,07,04,04,03,13.30
2007,07,04,04,04,13.30
2007,07,04,04,05,13.30
2007,07,04,04,06,13.30
2007,07,04,04,07,13.30
2007,07,04,04,08,13.30
2007,07,04,04,09,13.30
2007,07,04,04,10,13.30
2007,07,04,04,11,13.20
2007,07,04,04,12,13.20
2007,07,04,04,13,13.20
2007,07,04,04,14,13.20
2007,07,04,04,15,13.20
2007,07,04,04,16,13.20
2007,07,04,04,17,13.20
2007,07,04,04,18,13.20
2007,07,04,04,19,13.20
2007,07,04,04,20,13.20
2007,07,04,04,21,13.20
2007,07,04,04,22,13.20
2007,07,04,04,23,13.20
2007,07,04,04,24,13.20
2007,07,04,04,25,13.10
2007,07,04,04,26,13.10
2007,07,04,04,27,13.10
2007,07,04,04,28,13.10
2007,07,04,04,29,13.10
2007,07,04,04,30,13.10
2007,07,04,04,31,13.10
2007,07,04,04,32,13.10
2007,07,04,04,33,13.10
2007,07,04,04,34,13.10
2007,07,04,04,35,13.00
2007,07,04,04,36,13.00
2007,07,04,04,37,13.00
2007,07,04,04,38,13.00
2007,07,04,04,39,13.00
2007,07,04,04,40,13.00
2007,07,04,04,41,12.90
2007,07,04,04,42,12.90
2007,07,04,04,43,12.90
2007,07,04,04,44,12.90
2007,07,04,04,45,12.90
2007,07,04,04,46,12.90
2007,07,04,04,47,12.90
2007,07,04,04,48,12.90
2007,07,04,04,49,12.90
2007,07,04,04,50,12.90
2007,07,04,04,51,12.80
2007,07,04,04,52,12.80
2007,07,04,04,53,12.80
2007,07,04,04,54,12.80
2007,07,04,04,55,12.80
2007,07,04,04,56,12.80
2007,07,04,04,57,12.80
2007,07,04,04,58,12.80
2007,07,04,04,59,12.80
2007,07,04,05,00,12.70
2007,07,04,05,01,12.70
2007,07,04,05,02,12.70
2007,07,04,05,03,12.70
2007,07,04,05,04,12.70
2007,07,04,05,05,12.70
2007,07,04,05,06,12.70
2007,07,04,05,07,12.70
2007,07,04,05,08,12.60
2007,07,04,05,09,12.60
2007,07,04,05,10,12.60
2007,07,04,05,11,12.60
2007,07,04,05,12,12.60
2007,07,04,05,13,12.60
2007,07,04,05,14,12.60
2007,07,04,05,15,12.60
2007,07,04,05,16,12.60
2007,07,04,05,17,12.60
2007,07,04,05,18,12.60
2007,07,04,05,19,12.60
2007,07,04,05,20,12.60
2007,07,04,05,21,12.60
2007,07,04,05,22,12.60
2007,07,04,05,23,12.50
2007,07,04,05,24,12.50
2007,07,04,05,25,12.50
2007,07,04,05,26,12.50
2007,07,04,05,27,12.50
2007,07,04,05,28,12.50
2007,07,04,05,29,12.50
2007,07,04,05,30,12.60
2007,07,04,05,31,12.60
2007,07,04,05,32,12.60
2007,07,04,05,33,12.60
2007,07,04,05,34,12.70
2007,07,04,05,35,12.70
2007,07,04,05,36,12.70
2007,07,04,05,37,12.70
2007,07,04,05,38,12.70
2007,07,04,05,39,12.80
2007,07,04,05,40,12.80
2007,07,04,05,41,12.80
2007,07,04,05,42,12.80
2007,07,04,05,43,12.80
2007,07,04,05,44,12.80
2007,07,04,05,45,12.70
2007,07,04,05,46,12.70
2007,07,04,05,47,12.70
2007,07,04,05,48,12.70
2007,07,04,05,49,12.80
2007,07,04,05,50,12.80
2007,07,04,05,51,12.80
2007,07,04,05,52,12.90
2007,07,04,05,53,12.90
2007,07,04,05,54,12.90
2007,07,04,05,55,12.90
2007,07,04,05,56,12.90
2007,07,04,05,57,12.90
2007,07,04,05,58,12.90
2007,07,04,05,59,12.90
2007,07,04,06,00,12.90
2007,07,04,06,01,13.00
2007,07,04,06,02,13.00
2007,07,04,06,03,13.10
2007,07,04,06,04,13.10
2007,07,04,06,05,13.20
2007,07,04,06,06,13.20
2007,07,04,06,07,13.30
2007,07,04,06,08,13.40
2007,07,04,06,09,13.40
2007,07,04,06,10,13.50
2007,07,04,06,11,13.60
2007,07,04,06,12,13.60
2007,07,04,06,13,13.70
2007,07,04,06,14,13.70
2007,07,04,06,15,13.80
2007,07,04,06,16,13.80
2007,07,04,06,17,13.90
2007,07,04,06,18,13.90
2007,07,04,06,19,13.90
2007,07,04,06,20,14.00
2007,07,04,06,21,14.00
2007,07,04,06,22,14.00
2007,07,04,06,23,14.10
2007,07,04,06,24,14.10
2007,07,04,06,25,14.10
2007,07,04,06,26,14.20
2007,07,04,06,27,14.20
2007,07,04,06,28,14.30
2007,07,04,06,29,14.40
2007,07,04,06,30,14.50
2007,07,04,06,31,14.50
2007,07,04,06,32,14.60
2007,07,04,06,33,14.70
2007,07,04,06,34,14.80
2007,07,04,06,35,14.80
2007,07,04,06,36,15.00
2007,07,04,06,37,15.00
2007,07,04,06,38,15.00
2007,07,04,06,39,15.00
2007,07,04,06,40,15.00
2007,07,04,06,41,15.00
2007,07,04,06,42,15.00
2007,07,04,06,43,15.10
2007,07,04,06,44,15.20
2007,07,04,06,45,15.30
2007,07,04,06,46,15.30
2007,07,04,06,47,15.40
2007,07,04,06,48,15.50
2007,07,04,06,49,15.50
2007,07,04,06,50,15.60
2007,07,04,06,51,15.70
2007,07,04,06,52,15.80
2007,07,04,06,53,15.90
2007,07,04,06,54,16.00
2007,07,04,06,55,16.00
2007,07,04,06,56,16.10
2007,07,04,06,57,16.20
2007,07,04,06,58,16.30
2007,07,04,06,59,16.30
2007,07,04,07,00,16.40
2007,07,04,07,01,16.50
2007,07,04,07,02,16.60
2007,07,04,07,03,16.60
2007,07,04,07,04,16.70
2007,07,04,07,05,16.80
2007,07,04,07,06,16.80
2007,07,04,07,07,16.90
2007,07,04,07,08,17.00
2007,07,04,07,09,17.10
2007,07,04,07,10,17.10
2007,07,04,07,11,17.20
2007,07,04,07,12,17.20
2007,07,04,07,13,17.30
2007,07,04,07,14,17.30
2007,07,04,07,15,17.40
2007,07,04,07,16,17.40
2007,07,04,07,17,17.50
2007,07,04,07,18,17.50
2007,07,04,07,19,17.60
2007,07,04,07,20,17.70
2007,07,04,07,21,17.90
2007,07,04,07,22,18.00
2007,07,04,07,23,18.10
2007,07,04,07,24,18.20
2007,07,04,07,25,18.30
2007,07,04,07,26,18.30
2007,07,04,07,27,18.30
2007,07,04,07,28,18.30
2007,07,04,07,29,18.30
2007,07,04,07,30,18.30
2007,07,04,07,31,18.30
2007,07,04,07,32,18.30
2007,07,04,07,33,18.30
2007,07,04,07,34,18.30
2007,07,04,07,35,18.30
2007,07,04,07,36,18.30
2007,07,04,07,37,18.30
2007,07,04,07,38,18.30
2007,07,04,07,39,18.30
2007,07,04,07,40,18.30
2007,07,04,07,41,18.20
2007,07,04,07,42,18.20
2007,07,04,07,43,18.20
2007,07,04,07,44,18.20
2007,07,04,07,45,18.30
2007,07,04,07,46,18.30
2007,07,04,07,47,18.30
2007,07,04,07,48,18.40
2007,07,04,07,49,18.40
2007,07,04,07,50,18.40
2007,07,04,07,51,18.40
2007,07,04,07,52,18.40
2007,07,04,07,53,18.40
2007,07,04,07,54,18.40
2007,07,04,07,55,18.40
2007,07,04,07,56,18.40
2007,07,04,07,57,18.50
2007,07,04,07,58,18.60
2007,07,04,07,59,18.60
2007,07,04,08,00,18.60
2007,07,04,08,01,18.60
2007,07,04,08,02,18.60
2007,07,04,08,03,18.70
2007,07,04,08,04,18.80
2007,07,04,08,05,18.90
2007,07,04,08,06,19.00
2007,07,04,08,07,19.10
2007,07,04,08,08,19.10
2007,07,04,08,09,19.10
2007,07,04,08,10,19.10
2007,07,04,08,11,19.10
2007,07,04,08,12,19.00
2007,07,04,08,13,19.00
2007,07,04,08,14,19.00
2007,07,04,08,15,18.90
2007,07,04,08,16,18.90
2007,07,04,08,17,19.00
2007,07,04,08,18,19.10
2007,07,04,08,19,19.20
2007,07,04,08,20,19.20
2007,07,04,08,21,19.30
2007,07,04,08,22,19.30
2007,07,04,08,23,19.20
2007,07,04,08,24,19.20
2007,07,04,08,25,19.20
2007,07,04,08,26,19.30
2007,07,04,08,27,19.40
2007,07,04,08,28,19.50
2007,07,04,08,29,19.60
2007,07,04,08,30,19.60
2007,07,04,08,31,19.70
2007,07,04,08,32,19.80
2007,07,04,08,33,19.80
2007,07,04,08,34,19.80
2007,07,04,08,35,19.90
2007,07,04,08,36,20.00
2007,07,04,08,37,20.10
2007,07,04,08,38,20.10
2007,07,04,08,39,20.00
2007,07,04,08,40,20.00
2007,07,04,08,41,20.00
2007,07,04,08,42,20.00
2007,07,04,08,43,20.00
2007,07,04,08,44,20.10
2007,07,04,08,45,20.00
2007,07,04,08,46,19.90
2007,07,04,08,47,19.90
2007,07,04,08,48,19.90
2007,07,04,08,49,19.90
2007,07,04,08,50,19.80
2007,07,04,08,51,19.80
2007,07,04,08,52,19.80
2007,07,04,08,53,19.80
2007,07,04,08,54,19.80
2007,07,04,08,55,19.80
2007,07,04,08,56,19.90
2007,07,04,08,57,20.00
2007,07,04,08,58,20.10
2007,07,04,08,59,20.10
2007,07,04,09,00,20.00
2007,07,04,09,01,20.00
2007,07,04,09,02,20.00
2007,07,04,09,03,20.00
2007,07,04,09,04,20.10
2007,07,04,09,05,20.10
2007,07,04,09,06,20.10
2007,07,04,09,07,20.10
2007,07,04,09,08,20.10
2007,07,04,09,09,20.10
2007,07,04,09,10,20.00
2007,07,04,09,11,19.90
2007,07,04,09,12,19.90
2007,07,04,09,13,19.80
2007,07,04,09,14,19.80
2007,07,04,09,15,19.70
2007,07,04,09,16,19.70
2007,07,04,09,17,19.70
2007,07,04,09,18,19.70
2007,07,04,09,19,19.70
2007,07,04,09,20,19.80
2007,07,04,09,21,19.80
2007,07,04,09,22,19.80
2007,07,04,09,23,19.80
2007,07,04,09,24,19.70
2007,07,04,09,25,19.70
2007,07,04,09,26,19.70
2007,07,04,09,27,19.70
2007,07,04,09,28,19.80
2007,07,04,09,29,19.90
2007,07,04,09,30,19.90
2007,07,04,09,31,20.00
2007,07,04,09,32,20.00
2007,07,04,09,33,20.10
2007,07,04,09,34,20.10
2007,07,04,09,35,20.10
2007,07,04,09,36,20.10
2007,07,04,09,37,20.00
2007,07,04,09,38,20.00
2007,07,04,09,39,20.00
2007,07,04,09,40,20.00
2007,07,04,09,41,19.90
2007,07,04,09,42,19.90
2007,07,04,09,43,19.90
2007,07,04,09,44,19.80
2007,07,04,09,45,19.80
2007,07,04,09,46,19.70
2007,07,04,09,47,19.60
2007,07,04,09,48,19.60
2007,07,04,09,49,19.70
2007,07,04,09,50,19.60
2007,07,04,09,51,19.50
2007,07,04,09,52,19.60
2007,07,04,09,53,19.70
2007,07,04,09,54,19.70
2007,07,04,09,55,19.70
2007,07,04,09,56,19.70
2007,07,04,09,57,19.80
2007,07,04,09,58,19.80
2007,07,04,09,59,19.80
2007,07,04,10,00,19.80
2007,07,04,10,01,19.80
2007,07,04,10,02,19.80
2007,07,04,10,03,19.80
2007,07,04,10,04,19.80
2007,07,04,10,05,19.70
2007,07,04,10,06,19.70
2007,07,04,10,07,19.70
2007,07,04,10,08,19.70
2007,07,04,10,09,19.70
2007,07,04,10,10,19.70
2007,07,04,10,11,19.70
2007,07,04,10,12,19.80
2007,07,04,10,13,19.80
2007,07,04,10,14,19.80
2007,07,04,10,15,19.90
2007,07,04,10,16,19.90
2007,07,04,10,17,19.90
2007,07,04,10,18,20.00
2007,07,04,10,19,20.00
2007,07,04,10,20,20.10
2007,07,04,10,21,20.10
2007,07,04,10,22,20.00
2007,07,04,10,23,20.00
2007,07,04,10,24,20.00
2007,07,04,10,25,19.90
2007,07,04,10,26,19.90
2007,07,04,10,27,19.80
2007,07,04,10,28,19.80
2007,07,04,10,29,19.80
2007,07,04,10,30,19.80
2007,07,04,10,31,19.80
2007,07,04,10,32,19.90
2007,07,04,10,33,20.10
2007,07,04,10,34,20.20
2007,07,04,10,35,20.20
2007,07,04,10,36,20.20
2007,07,04,10,37,20.30
2007,07,04,10,38,20.30
2007,07,04,10,39,20.20
2007,07,04,10,40,20.20
2007,07,04,10,41,20.30
2007,07,04,10,42,20.30
2007,07,04,10,43,20.30
2007,07,04,10,44,20.30
2007,07,04,10,45,20.40
2007,07,04,10,46,20.40
2007,07,04,10,47,20.50
2007,07,04,10,48,20.40
2007,07,04,10,49,20.50
2007,07,04,10,50,20.60
2007,07,04,10,51,20.60
2007,07,04,10,52,20.60
2007,07,04,10,53,20.60
2007,07,04,10,54,20.60
2007,07,04,10,55,20.70
2007,07,04,10,56,20.70
2007,07,04,10,57,20.70
2007,07,04,10,58,20.60
2007,07,04,10,59,20.50
2007,07,04,11,00,20.40
2007,07,04,11,01,20.50
2007,07,04,11,02,20.60
2007,07,04,11,03,20.60
2007,07,04,11,04,20.70
2007,07,04,11,05,20.70
2007,07,04,11,06,20.80
2007,07,04,11,07,20.70
2007,07,04,11,08,20.80
2007,07,04,11,09,20.80
2007,07,04,11,10,20.90
2007,07,04,11,11,21.00
2007,07,04,11,12,21.00
2007,07,04,11,13,20.90
2007,07,04,11,14,20.90
2007,07,04,11,15,20.80
2007,07,04,11,16,20.80
2007,07,04,11,17,20.80
2007,07,04,11,18,20.70
2007,07,04,11,19,20.70
2007,07,04,11,20,20.80
2007,07,04,11,21,20.80
2007,07,04,11,22,20.80
2007,07,04,11,23,20.90
2007,07,04,11,24,20.90
2007,07,04,11,25,21.00
2007,07,04,11,26,21.00
2007,07,04,11,27,21.10
2007,07,04,11,28,21.20
2007,07,04,11,29,21.20
2007,07,04,11,30,21.30
2007,07,04,11,31,21.30
2007,07,04,11,32,21.40
2007,07,04,11,33,21.50
2007,07,04,11,34,21.70
2007,07,04,11,35,21.80
2007,07,04,11,36,21.80
2007,07,04,11,37,21.80
2007,07,04,11,38,21.80
2007,07,04,11,39,21.90
2007,07,04,11,40,21.90
2007,07,04,11,41,21.90
2007,07,04,11,42,22.00
2007,07,04,11,43,22.10
2007,07,04,11,44,22.20
2007,07,04,11,45,22.20
2007,07,04,11,46,22.20
2007,07,04,11,47,22.10
2007,07,04,11,48,21.90
2007,07,04,11,49,21.80
2007,07,04,11,50,21.90
2007,07,04,11,51,21.90
2007,07,04,11,52,21.80
2007,07,04,11,53,21.80
2007,07,04,11,54,21.80
2007,07,04,11,55,21.90
2007,07,04,11,56,22.00
2007,07,04,11,57,22.10
2007,07,04,11,58,22.20
2007,07,04,11,59,22.30
2007,07,04,12,00,22.50
2007,07,04,12,01,22.60
2007,07,04,12,02,22.60
2007,07,04,12,03,22.60
2007,07,04,12,04,22.70
2007,07,04,12,05,22.80
2007,07,04,12,06,22.90
2007,07,04,12,07,22.90
2007,07,04,12,08,23.00
2007,07,04,12,09,22.90
2007,07,04,12,10,22.80
2007,07,04,12,11,22.80
2007,07,04,12,12,23.00
2007,07,04,12,13,23.00
2007,07,04,12,14,23.10
2007,07,04,12,15,23.10
2007,07,04,12,16,23.10
2007,07,04,12,17,23.30
2007,07,04,12,18,23.20
2007,07,04,12,19,23.10
2007,07,04,12,20,23.10
2007,07,04,12,21,23.10
2007,07,04,12,22,23.20
2007,07,04,12,23,23.30
2007,07,04,12,24,23.40
2007,07,04,12,25,23.50
2007,07,04,12,26,23.50
2007,07,04,12,27,23.50
2007,07,04,12,28,23.50
2007,07,04,12,29,23.50
2007,07,04,12,30,23.50
2007,07,04,12,31,23.50
2007,07,04,12,32,23.40
2007,07,04,12,33,23.40
2007,07,04,12,34,23.40
2007,07,04,12,35,23.40
2007,07,04,12,36,23.30
2007,07,04,12,37,23.40
2007,07,04,12,38,23.50
2007,07,04,12,39,23.60
2007,07,04,12,40,23.50
2007,07,04,12,41,23.40
2007,07,04,12,42,23.40
2007,07,04,12,43,23.40
2007,07,04,12,44,23.40
2007,07,04,12,45,23.40
2007,07,04,12,46,23.20
2007,07,04,12,47,23.20
2007,07,04,12,48,23.10
2007,07,04,12,49,22.90
2007,07,04,12,50,23.00
2007,07,04,12,51,23.10
2007,07,04,12,52,23.20
2007,07,04,12,53,23.30
2007,07,04,12,54,23.30
2007,07,04,12,55,23.20
2007,07,04,12,56,23.30
2007,07,04,12,57,23.30
2007,07,04,12,58,23.40
2007,07,04,12,59,23.50
2007,07,04,13,00,23.50
2007,07,04,13,01,23.50
2007,07,04,13,02,23.50
2007,07,04,13,03,23.60
2007,07,04,13,04,23.70
2007,07,04,13,05,23.60
2007,07,04,13,06,23.50
2007,07,04,13,07,23.40
2007,07,04,13,08,23.40
2007,07,04,13,09,23.40
2007,07,04,13,10,23.50
2007,07,04,13,11,23.60
2007,07,04,13,12,23.70
2007,07,04,13,13,23.70
2007,07,04,13,14,23.70
2007,07,04,13,15,23.60
2007,07,04,13,16,23.50
2007,07,04,13,17,23.60
2007,07,04,13,18,23.60
2007,07,04,13,19,23.70
2007,07,04,13,20,23.70
2007,07,04,13,21,23.80
2007,07,04,13,22,23.90
2007,07,04,13,23,23.90
2007,07,04,13,24,23.80
2007,07,04,13,25,23.80
2007,07,04,13,26,23.80
2007,07,04,13,27,23.60
2007,07,04,13,28,23.40
2007,07,04,13,29,23.30
2007,07,04,13,30,23.30
2007,07,04,13,31,23.30
2007,07,04,13,32,23.30
2007,07,04,13,33,23.40
2007,07,04,13,34,23.50
2007,07,04,13,35,23.70
2007,07,04,13,36,23.80
2007,07,04,13,37,24.00
2007,07,04,13,38,24.10
2007,07,04,13,39,24.20
2007,07,04,13,40,24.20
2007,07,04,13,41,24.10
2007,07,04,13,42,23.90
2007,07,04,13,43,23.80
2007,07,04,13,44,23.80
2007,07,04,13,45,23.80
2007,07,04,13,46,23.80
2007,07,04,13,47,23.80
2007,07,04,13,48,23.90
2007,07,04,13,49,23.80
2007,07,04,13,50,23.80
2007,07,04,13,51,23.70
2007,07,04,13,52,23.60
2007,07,04,13,53,23.50
2007,07,04,13,54,23.50
2007,07,04,13,55,23.50
2007,07,04,13,56,23.50
2007,07,04,13,57,23.50
2007,07,04,13,58,23.50
2007,07,04,13,59,23.60
2007,07,04,14,00,23.70
2007,07,04,14,01,23.80
2007,07,04,14,02,23.90
2007,07,04,14,03,23.90
2007,07,04,14,04,23.90
2007,07,04,14,05,24.00
2007,07,04,14,06,24.00
2007,07,04,14,07,23.90
2007,07,04,14,08,23.90
2007,07,04,14,09,23.90
2007,07,04,14,10,24.00
2007,07,04,14,11,24.10
2007,07,04,14,12,24.40
2007,07,04,14,13,24.40
2007,07,04,14,14,24.50
2007,07,04,14,15,24.60
2007,07,04,14,16,24.40
2007,07,04,14,17,24.30
2007,07,04,14,18,24.20
2007,07,04,14,19,24.10
2007,07,04,14,20,24.10
2007,07,04,14,21,24.00
2007,07,04,14,22,24.00
2007,07,04,14,23,23.90
2007,07,04,14,24,23.90
2007,07,04,14,25,24.00
2007,07,04,14,26,24.20
2007,07,04,14,27,24.30
2007,07,04,14,28,24.30
2007,07,04,14,29,24.20
2007,07,04,14,30,24.10
2007,07,04,14,31,24.10
2007,07,04,14,32,24.20
2007,07,04,14,33,24.10
2007,07,04,14,34,24.10
2007,07,04,14,35,24.20
2007,07,04,14,36,24.20
2007,07,04,14,37,24.30
2007,07,04,14,38,24.40
2007,07,04,14,39,24.40
2007,07,04,14,40,24.40
2007,07,04,14,41,24.40
2007,07,04,14,42,24.40
2007,07,04,14,43,24.30
2007,07,04,14,44,24.30
2007,07,04,14,45,24.40
2007,07,04,14,46,24.50
2007,07,04,14,47,24.50
2007,07,04,14,48,24.50
2007,07,04,14,49,24.50
2007,07,04,14,50,24.50
2007,07,04,14,51,24.50
2007,07,04,14,52,24.50
2007,07,04,14,53,24.50
2007,07,04,14,54,24.60
2007,07,04,14,55,24.70
2007,07,04,14,56,24.60
2007,07,04,14,57,24.70
2007,07,04,14,58,24.70
2007,07,04,14,59,24.50
2007,07,04,15,00,24.40
2007,07,04,15,01,24.30
2007,07,04,15,02,24.30
2007,07,04,15,03,24.40
2007,07,04,15,04,24.50
2007,07,04,15,05,24.60
2007,07,04,15,06,24.60
2007,07,04,15,07,24.60
2007,07,04,15,08,24.60
2007,07,04,15,09,24.60
2007,07,04,15,10,24.60
2007,07,04,15,11,24.60
2007,07,04,15,12,24.70
2007,07,04,15,13,24.60
2007,07,04,15,14,24.70
2007,07,04,15,15,24.60
2007,07,04,15,16,24.70
2007,07,04,15,17,24.60
2007,07,04,15,18,24.50
2007,07,04,15,19,24.40
2007,07,04,15,20,24.40
2007,07,04,15,21,24.50
2007,07,04,15,22,24.50
2007,07,04,15,23,24.60
2007,07,04,15,24,24.70
2007,07,04,15,25,24.80
2007,07,04,15,26,25.00
2007,07,04,15,27,25.10
2007,07,04,15,28,25.20
2007,07,04,15,29,25.20
2007,07,04,15,30,25.20
2007,07,04,15,31,25.00
2007,07,04,15,32,24.90
2007,07,04,15,33,24.90
2007,07,04,15,34,24.90
2007,07,04,15,35,24.90
2007,07,04,15,36,24.80
2007,07,04,15,37,24.80
2007,07,04,15,38,24.80
2007,07,04,15,39,24.80
2007,07,04,15,40,24.90
2007,07,04,15,41,25.00
2007,07,04,15,42,25.20
2007,07,04,15,43,25.20
2007,07,04,15,44,25.10
2007,07,04,15,45,25.00
2007,07,04,15,46,25.10
2007,07,04,15,47,25.20
2007,07,04,15,48,25.10
2007,07,04,15,49,25.10
2007,07,04,15,50,25.10
2007,07,04,15,51,25.10
2007,07,04,15,52,25.20
2007,07,04,15,53,25.20
2007,07,04,15,54,25.20
2007,07,04,15,55,25.30
2007,07,04,15,56,25.30
2007,07,04,15,57,25.40
2007,07,04,15,58,25.50
2007,07,04,15,59,25.70
2007,07,04,16,00,25.70
2007,07,04,16,01,25.60
2007,07,04,16,02,25.50
2007,07,04,16,03,25.50
2007,07,04,16,04,25.40
2007,07,04,16,05,25.40
2007,07,04,16,06,25.50
2007,07,04,16,07,25.60
2007,07,04,16,08,25.60
2007,07,04,16,09,25.70
2007,07,04,16,10,25.70
2007,07,04,16,11,25.80
2007,07,04,16,12,25.90
2007,07,04,16,13,25.90
2007,07,04,16,14,25.90
2007,07,04,16,15,26.00
2007,07,04,16,16,26.00
2007,07,04,16,17,25.90
2007,07,04,16,18,25.90
2007,07,04,16,19,25.90
2007,07,04,16,20,25.90
2007,07,04,16,21,25.80
2007,07,04,16,22,25.70
2007,07,04,16,23,25.60
2007,07,04,16,24,25.60
2007,07,04,16,25,25.80
2007,07,04,16,26,26.00
2007,07,04,16,27,26.10
2007,07,04,16,28,26.10
2007,07,04,16,29,26.10
2007,07,04,16,30,26.10
2007,07,04,16,31,26.20
2007,07,04,16,32,26.30
2007,07,04,16,33,26.30
2007,07,04,16,34,26.30
2007,07,04,16,35,26.20
2007,07,04,16,36,26.20
2007,07,04,16,37,26.30
2007,07,04,16,38,26.30
2007,07,04,16,39,26.40
2007,07,04,16,40,26.40
2007,07,04,16,41,26.40
2007,07,04,16,42,26.30
2007,07,04,16,43,26.20
2007,07,04,16,44,26.10
2007,07,04,16,45,26.10
2007,07,04,16,46,26.00
2007,07,04,16,47,25.90
2007,07,04,16,48,26.10
2007,07,04,16,49,26.20
2007,07,04,16,50,26.20
2007,07,04,16,51,26.20
2007,07,04,16,52,26.30
2007,07,04,16,53,26.20
2007,07,04,16,54,26.10
2007,07,04,16,55,26.00
2007,07,04,16,56,25.90
2007,07,04,16,57,25.90
2007,07,04,16,58,25.90
2007,07,04,16,59,25.90
2007,07,04,17,00,25.90
2007,07,04,17,01,25.90
2007,07,04,17,02,26.00
2007,07,04,17,03,25.90
2007,07,04,17,04,25.90
2007,07,04,17,05,25.90
2007,07,04,17,06,25.90
2007,07,04,17,07,25.80
2007,07,04,17,08,25.80
2007,07,04,17,09,25.80
2007,07,04,17,10,25.80
2007,07,04,17,11,25.70
2007,07,04,17,12,25.60
2007,07,04,17,13,25.50
2007,07,04,17,14,25.50
2007,07,04,17,15,25.40
2007,07,04,17,16,25.50
2007,07,04,17,17,25.50
2007,07,04,17,18,25.40
2007,07,04,17,19,25.30